London/olympic Park South, United Kingdom

11:35 AM GMT on January 16, 2017 (GMT +0000)
London City

Weather History for EGLC - September, 2013

Change the Weather History Date:

Friday, September 13, 2013

  Actual Average Record
Temperature  
Mean Temperature 62 °F -  
Max Temperature 64 °F 64 °F 91 °F (2016)
Min Temperature 59 °F 54 °F 48 °F (1996)
Degree Days  
Heating Degree Days 4    
Growing Degree Days 12 (Base 50)    
Moisture  
Dew Point 60 °F    
Average Humidity 93    
Maximum Humidity 100    
Minimum Humidity 88    
Precipitation  
Precipitation 0.00 in - - ()
Sea Level Pressure  
Sea Level Pressure 30.03 in    
Wind  
Wind Speed 6 mph ()    
Max Wind Speed 9 mph    
Max Gust Speed -    
Visibility 4.5 miles    
Events Rain    
Averages and records for this station are not official NWS values.
T = Trace of Precipitation, MM = Missing Value Source: Averaged Metar Reports

Daily Weather History Graph

Daily Weather History Graph

Search for Another Location

Airport or City:

Trip Planner

Search our weather history database for the weather conditions in past years. The results will help you decide how hot, cold, wet, or windy it might be!

Date:

Astronomy

Sep. 13, 2013 Rise Set
Actual Time 6:31 AM BST 7:18 PM BST
Civil Twilight 5:57 AM BST 7:52 PM BST
Nautical Twilight 5:17 AM BST 8:32 PM BST
Astronomical Twilight 4:33 AM BST 9:15 PM BST
Moon 3:25 PM BST (9/13) No Moon Set
Length of Visible Light 13h 54m
Length of Day
12h 47m
First Quarter, 59% of the Moon is Illuminated
Sep 13
First Quarter
Sep 19
Full
Sep 27
Last Quarter
Oct 5
New
Oct 12
First Quarter

Hourly Weather History & Observations

Time (BST) Temp. Dew Point Humidity Pressure Visibility Wind Dir Wind Speed Gust Speed Precip Events Conditions
12:20 AM 60.8 °F 59.0 °F 94% 30.06 in - SW 6.9 mph - N/A Rain Rain
12:50 AM 60.8 °F 59.0 °F 94% 30.06 in - SW 4.6 mph - N/A Rain Rain
1:20 AM 60.8 °F 59.0 °F 94% 30.06 in - SSW 5.8 mph - N/A   Drizzle
1:50 AM 60.8 °F 59.0 °F 94% 30.06 in - SSW 4.6 mph - N/A Rain Heavy Rain
2:20 AM 60.8 °F 59.0 °F 94% 30.04 in - SW 4.6 mph - N/A Rain Light Rain
2:50 AM 60.8 °F 60.8 °F 100% 30.04 in - SW 5.8 mph - N/A Rain Light Rain Showers
3:20 AM 62.6 °F 60.8 °F 94% 30.04 in 5.6 mi SW 6.9 mph - N/A Rain Light Rain Showers
3:50 AM 62.6 °F 60.8 °F 94% 30.04 in 5.6 mi WSW 6.9 mph - N/A   Mostly Cloudy
4:20 AM 62.6 °F 60.8 °F 94% 30.04 in 5.0 mi WSW 6.9 mph - N/A   Scattered Clouds
4:50 AM 62.6 °F 60.8 °F 94% 30.04 in 4.3 mi WSW 5.8 mph - N/A   Scattered Clouds
5:20 AM 62.6 °F 60.8 °F 94% 30.04 in 3.7 mi WSW 5.8 mph - N/A   Mostly Cloudy
5:50 AM 62.6 °F 60.8 °F 94% 30.04 in 4.3 mi WSW 5.8 mph - N/A   Mostly Cloudy
6:20 AM 62.6 °F 60.8 °F 94% 30.04 in 4.3 mi SW 5.8 mph - N/A   Mostly Cloudy
6:50 AM 62.6 °F 60.8 °F 94% 30.04 in 5.6 mi WSW 9.2 mph - N/A   Mostly Cloudy
7:20 AM 64.4 °F 60.8 °F 88% 30.04 in 6.2 mi WSW 9.2 mph - N/A   Mostly Cloudy
7:50 AM 62.6 °F 60.8 °F 94% 30.04 in - WSW 6.9 mph - N/A   Haze
8:20 AM 64.4 °F 60.8 °F 88% 30.04 in 3.7 mi WSW 6.9 mph - N/A   Mostly Cloudy
8:50 AM 64.4 °F 60.8 °F 88% 30.06 in 2.8 mi WSW 9.2 mph - N/A   Haze
9:20 AM 64.4 °F 62.6 °F 94% 30.06 in - WSW 6.9 mph - N/A   Haze
9:50 AM 64.4 °F 60.8 °F 88% 30.06 in 4.3 mi WSW 8.1 mph - N/A   Mostly Cloudy
10:20 AM 64.4 °F 62.6 °F 94% 30.06 in - West 5.8 mph - N/A Rain Light Rain
10:50 AM 64.4 °F 62.6 °F 94% 30.06 in 2.8 mi WNW 3.5 mph - N/A Rain Light Rain
11:20 AM 64.4 °F 62.6 °F 94% 30.06 in 2.5 mi WSW 5.8 mph - N/A   Light Drizzle
11:50 AM 64.4 °F 62.6 °F 94% 30.06 in 5.6 mi WSW 6.9 mph - N/A   Light Drizzle
12:20 PM 64.4 °F 60.8 °F 88% 30.06 in 6.2 mi NNW 6.9 mph - N/A Rain Light Rain
12:50 PM 62.6 °F 60.8 °F 94% 30.06 in 2.2 mi North 5.8 mph - N/A Rain Rain
1:20 PM 62.6 °F 60.8 °F 94% 30.06 in 3.7 mi North 6.9 mph - N/A Rain Light Rain
1:50 PM 62.6 °F 60.8 °F 94% 30.06 in 6.2 mi North 5.8 mph - N/A   Mostly Cloudy
2:20 PM 62.6 °F 59.0 °F 88% 30.06 in 6.2 mi NNE 5.8 mph - N/A   Mostly Cloudy
2:50 PM 62.6 °F 59.0 °F 88% 30.06 in 6.2 mi North 5.8 mph - N/A   Mostly Cloudy
3:20 PM 62.6 °F 59.0 °F 88% 30.06 in - North 4.6 mph - N/A Rain Light Rain
3:50 PM 60.8 °F 59.0 °F 94% 30.04 in - North 4.6 mph - N/A   Drizzle
4:20 PM 62.6 °F 59.0 °F 88% 30.04 in 6.2 mi North 3.5 mph - N/A   Overcast
4:50 PM 60.8 °F 59.0 °F 94% 30.04 in 3.7 mi North 4.6 mph - N/A   Mostly Cloudy
5:20 PM 60.8 °F 59.0 °F 94% 30.04 in - Variable 2.3 mph - N/A   Light Drizzle
5:50 PM 60.8 °F 59.0 °F 94% 30.04 in - Variable 2.3 mph - N/A   Light Drizzle
6:50 PM 60.8 °F 59.0 °F 94% 30.01 in 3.1 mi East 4.6 mph - N/A Rain Rain
7:20 PM 60.8 °F 59.0 °F 94% 30.01 in - East 5.8 mph - N/A Rain Rain
7:50 PM 60.8 °F 59.0 °F 94% 29.98 in - East 5.8 mph - N/A Rain Rain
8:20 PM 60.8 °F 59.0 °F 94% 29.98 in - ENE 4.6 mph - N/A Rain Rain
8:50 PM 60.8 °F 59.0 °F 94% 29.98 in - East 9.2 mph - N/A Rain Heavy Rain
9:20 PM 60.8 °F 59.0 °F 94% 29.95 in - East 9.2 mph - N/A Rain Heavy Rain
9:50 PM 59.0 °F 59.0 °F 100% 29.95 in - ENE 9.2 mph - N/A Rain Rain
10:20 PM 59.0 °F 57.2 °F 94% 29.92 in 5.0 mi NE 8.1 mph - N/A Rain Rain
10:50 PM 59.0 °F 57.2 °F 94% 29.92 in 3.7 mi ENE 5.8 mph - N/A Rain Heavy Rain
11:20 PM 59.0 °F 57.2 °F 94% 29.89 in 2.2 mi NNE 5.8 mph - N/A Rain Heavy Rain
11:50 PM 59.0 °F 57.2 °F 94% 29.89 in - NNW 5.8 mph - N/A Rain Heavy Rain